Farmville, Virginia, United States (23901)
Lat: 37.30N, Lon: 78.39W
Wx Zone: VAZ060
Local Info
Past Weather Observations for Today

NOTE: This archive is for the closest National Weather Service station to Farmville. Information may differ from the station used for current weather conditions.

Click here for Long-term Archive

Time Weather Temperature Dewpoint Humidity Pressure Winds Precip Visibility
22:15
Overcast
72°F / 22°C 63°F / 17°C 73% 30.12 in
(1020 mb)
Calm - 10SM
21:55
Overcast
72°F / 22°C 63°F / 17°C 73% 30.12 in
(1020 mb)
Calm - 10SM
21:35
Mostly Cloudy
72°F / 22°C 63°F / 17°C 73% 30.12 in
(1020 mb)
Calm - 10SM
21:15
Partly Cloudy
73°F / 23°C 63°F / 17°C 69% 30.12 in
(1020 mb)
SW 3.5 mph
(SW 6 kph)
- 10SM
20:55
Partly Cloudy
73°F / 23°C 63°F / 17°C 69% 30.12 in
(1020 mb)
SW 3.5 mph
(SW 6 kph)
- 10SM
20:35
Partly Cloudy
73°F / 23°C 63°F / 17°C 69% 30.12 in
(1020 mb)
SW 4.6 mph
(SW 7 kph)
- 10SM
20:15
Clear
75°F / 24°C 64°F / 18°C 69% 30.12 in
(1020 mb)
SW 5.8 mph
(SW 9 kph)
- 10SM
19:55
Clear
75°F / 24°C 66°F / 19°C 74% 30.12 in
(1020 mb)
SSE 5.8 mph
(SSE 9 kph)
- 10SM
19:35
Clear
75°F / 24°C 66°F / 19°C 74% 30.12 in
(1020 mb)
SSE 6.9 mph
(SSE 11 kph)
- 10SM
19:15
Clear
75°F / 24°C 66°F / 19°C 74% 30.12 in
(1020 mb)
S 5.8 mph
(S 9 kph)
- 10SM
18:35
Mostly Cloudy
79°F / 26°C 66°F / 19°C 65% 30.12 in
(1020 mb)
S 9.2 mph
(S 15 kph)
- 10SM
18:15
Clear
79°F / 26°C 64°F / 18°C 61% 30.12 in
(1020 mb)
S 8.1 mph
(S 13 kph)
- 10SM
17:55
Clear
81°F / 27°C 64°F / 18°C 58% 30.09 in
(1019 mb)
S 5.8 mph
(S 9 kph)
- 10SM
17:35
Clear
81°F / 27°C 64°F / 18°C 58% 30.09 in
(1019 mb)
SSE 6.9 mph
(SSE 11 kph)
- 10SM
17:15
Clear
81°F / 27°C 64°F / 18°C 58% 30.09 in
(1019 mb)
SSE 6.9 mph
(SSE 11 kph)
- 10SM
16:55
Clear
82°F / 28°C 64°F / 18°C 55% 30.09 in
(1019 mb)
S 5.8 mph
(S 9 kph)
- 10SM
16:35
Clear
82°F / 28°C 63°F / 17°C 51% 30.09 in
(1019 mb)
SSE 6.9 mph
(SSE 11 kph)
- 10SM
16:15
Clear
82°F / 28°C 63°F / 17°C 51% 30.09 in
(1019 mb)
SSE 5.8 mph
(SSE 9 kph)
- 10SM
15:55
Clear
82°F / 28°C 63°F / 17°C 51% 30.09 in
(1019 mb)
S 6.9 mph
(S 11 kph)
- 10SM
15:35
Clear
82°F / 28°C 63°F / 17°C 51% 30.09 in
(1019 mb)
S 8.1 mph
(S 13 kph)
- 10SM
15:15
Clear
82°F / 28°C 63°F / 17°C 51% 30.09 in
(1019 mb)
SSE 6.9 mph
(SSE 11 kph)
- 10SM
14:55
Partly Cloudy
82°F / 28°C 61°F / 16°C 48% 30.09 in
(1019 mb)
S 9.2 mph
(S 15 kph)
- 10SM
14:35
Partly Cloudy
84°F / 29°C 61°F / 16°C 45% 30.09 in
(1019 mb)
SSE 10.4 mph
(SSE 17 kph)
- 10SM
14:15
Clear
82°F / 28°C 63°F / 17°C 51% 30.12 in
(1020 mb)
SW 5.8 mph
(SW 9 kph)
- 10SM
13:55
Partly Cloudy
82°F / 28°C 64°F / 18°C 55% 30.09 in
(1019 mb)
S 5.8 mph
(S 9 kph)
- 10SM
13:35
Clear
82°F / 28°C 63°F / 17°C 51% 30.12 in
(1020 mb)
S 8.1 mph
(S 13 kph)
- 10SM
13:15
Clear
82°F / 28°C 63°F / 17°C 51% 30.12 in
(1020 mb)
S 8.1 mph
(S 13 kph)
- 10SM
12:55
Partly Cloudy
82°F / 28°C 63°F / 17°C 51% 30.12 in
(1020 mb)
S 9.2 mph
(S 15 kph)
- 10SM
12:35
Partly Cloudy
82°F / 28°C 61°F / 16°C 48% 30.12 in
(1020 mb)
S 9.2 mph
(S 15 kph)
- 10SM
12:15
Partly Cloudy
82°F / 28°C 61°F / 16°C 48% 30.12 in
(1020 mb)
SSE 6.9 mph
(SSE 11 kph)
- 10SM
11:55
Partly Cloudy
82°F / 28°C 59°F / 15°C 45% 30.12 in
(1020 mb)
S 8.1 mph
(S 13 kph)
- 10SM
11:35
Partly Cloudy
82°F / 28°C 61°F / 16°C 48% 30.12 in
(1020 mb)
SSW 4.6 mph
(SSW 7 kph)
- 10SM
11:15
Partly Cloudy
82°F / 28°C 61°F / 16°C 48% 30.12 in
(1020 mb)
S 6.9 mph
(S 11 kph)
- 10SM
10:55
Partly Cloudy
82°F / 28°C 61°F / 16°C 48% 30.12 in
(1020 mb)
SW 4.6 mph
(SW 7 kph)
- 10SM
10:35
Partly Cloudy
82°F / 28°C 63°F / 17°C 51% 30.12 in
(1020 mb)
SW 6.9 mph
(SW 11 kph)
- 10SM
10:15
Clear
81°F / 27°C 63°F / 17°C 54% 30.12 in
(1020 mb)
SW 9.2 mph
(SW 15 kph)
- 10SM
09:55
Clear
79°F / 26°C 64°F / 18°C 61% 30.12 in
(1020 mb)
W 4.6 mph
(W 7 kph)
- 10SM
09:35
Clear
77°F / 25°C 64°F / 18°C 65% 30.12 in
(1020 mb)
Calm - 10SM
09:15
Clear
75°F / 24°C 64°F / 18°C 69% 30.12 in
(1020 mb)
Calm - 10SM
08:55
Clear
75°F / 24°C 64°F / 18°C 69% 30.12 in
(1020 mb)
Calm - 10SM
08:35
Clear
73°F / 23°C 63°F / 17°C 69% 30.12 in
(1020 mb)
SW 3.5 mph
(SW 6 kph)
- 10SM
08:15
Clear
72°F / 22°C 66°F / 19°C 83% 30.12 in
(1020 mb)
S 3.5 mph
(S 6 kph)
- 10SM
07:55
Clear
70°F / 21°C 66°F / 19°C 88% 30.12 in
(1020 mb)
S 3.5 mph
(S 6 kph)
- 10SM
07:35
Clear
66°F / 19°C 66°F / 19°C 100% 30.12 in
(1020 mb)
Calm - 10SM
07:15
Clear
64°F / 18°C 63°F / 17°C 94% 30.12 in
(1020 mb)
Calm - 7SM
06:55
Clear
63°F / 17°C 61°F / 16°C 94% 30.12 in
(1020 mb)
S 3.5 mph
(S 6 kph)
- 7SM
06:35
Clear
61°F / 16°C 59°F / 15°C 94% 30.12 in
(1020 mb)
Calm - 7SM
06:15
Clear
Fog And Mist
57°F / 14°C 57°F / 14°C 100% 30.09 in
(1019 mb)
Calm - 5SM
05:55
Clear
Fog And Mist
57°F / 14°C 55°F / 13°C 94% 30.09 in
(1019 mb)
Calm - 4SM
05:35
Clear
Fog And Mist
55°F / 13°C 55°F / 13°C 100% 30.09 in
(1019 mb)
Calm - 4SM
05:15
Clear
Fog And Mist
55°F / 13°C 55°F / 13°C 100% 30.09 in
(1019 mb)
Calm - 2SM
04:55
Partly Cloudy
Fog And Mist
55°F / 13°C 55°F / 13°C 100% 30.09 in
(1019 mb)
Calm - 3SM
04:35
Clear
Fog And Mist
57°F / 14°C 55°F / 13°C 94% 30.09 in
(1019 mb)
Calm - 2 1/2SM
04:15
Obscured
Fog And Mist
57°F / 14°C 55°F / 13°C 94% 30.09 in
(1019 mb)
Calm - 1SM
03:55
Obscured
Fog And Mist
57°F / 14°C 55°F / 13°C 94% 30.09 in
(1019 mb)
Calm - 1 1/4SM
03:35
Clear
Fog And Mist
57°F / 14°C 55°F / 13°C 94% 30.09 in
(1019 mb)
Calm - 2SM
03:15
Mostly Cloudy
Fog And Mist
57°F / 14°C 55°F / 13°C 94% 30.09 in
(1019 mb)
Calm - 1SM
02:55
Clear
Fog And Mist
59°F / 15°C 57°F / 14°C 94% 30.06 in
(1018 mb)
Calm - 5SM
02:35
Clear
Fog And Mist
55°F / 13°C 55°F / 13°C 100% 30.09 in
(1019 mb)
Calm - 2SM
02:15
Clear
Fog And Mist
57°F / 14°C 57°F / 14°C 100% 30.09 in
(1019 mb)
Calm - 2 1/2SM
01:55
Mostly Cloudy
Fog And Mist
59°F / 15°C 57°F / 14°C 94% 30.09 in
(1019 mb)
Calm - 1 1/4SM
01:35
Obscured
Fog And Mist
59°F / 15°C 57°F / 14°C 94% 30.09 in
(1019 mb)
Calm - 3/4SM
01:15
Clear
Fog And Mist
59°F / 15°C 57°F / 14°C 94% 30.09 in
(1019 mb)
Calm - 2 1/2SM
00:55
Clear
Fog And Mist
59°F / 15°C 57°F / 14°C 94% 30.09 in
(1019 mb)
Calm - 5SM
00:35
Clear
Fog And Mist
59°F / 15°C 57°F / 14°C 94% 30.09 in
(1019 mb)
Calm - 4SM
00:15
Clear
Fog And Mist
59°F / 15°C 59°F / 15°C 100% 30.09 in
(1019 mb)
Calm - 2 1/2SM
Time Weather Temperature Dewpoint Humidity Pressure Winds Precip Visibility


Weather for websites

WeatherForYou.com, LLC is not responsible for any damages or problems caused by this service. Current weather conditions are obtained from the closest station including government and personal stations which may have varying degrees of accuracy. Weather forecasts are derived from the NOAA NDFD. Like all things, this site belongs to Jesus Christ... He just trusts me to maintain it. If you have any questions or comments email webmaster@weatherforyou.com

Copyright © 2014, WeatherForYou.com LLC. All rights reserved.